Погода в Кубее

Украина / Одесская область     45°47′37″N   28°44′27″E
темп.,
°C
ветер,
м/с
пор.,
м/с
влажн.,
%
обл.,
%
осадки,
мм/ч
давл.,
гПа
погр.,
м
2 марта, вт
вт223:00+1с498481 0.0 1034338
02:00+2с477987 0.0 1034391
05:000ссз349271 0.0 103383
08:00+1зсз238564 0.0 1033134
11:00+5зсз346553 0.0 1032927
14:00+8зсз455577 0.0 10301081
17:00+9з584927 0.0 1028506
20:00+6з5116630 0.0 1027232
3 марта, ср
ср323:00+5зсз511716 0.0 1027245
02:00+5ссз7157827 0.0 1029541
05:00+4ссз613850 0.0 1029429
08:00+4с59859 0.0 1031587
11:00+8ссз57600 0.0 10311008
14:00+10ссз56490 0.0 10301295
17:00+10ссз35520 0.0 10291147
20:00+7в00660 0.0 102922
4 марта, чт
чт423:00+6ю23700 0.0 102823
02:00+4ю34770 0.0 102669
05:00+4ююз48810 0.0 1023174
08:00+5ююз511780 0.0 1022328
11:00+10юз710560 0.0 1019677
14:00+14юз7104614 0.0 1017756
17:00+13юз48485 0.0 1014378
20:00+9ююз49642 0.0 1015168
5 марта, пт
пт523:00+8юз47724 0.0 1014133
02:00+7зюз347511 0.0 101351
05:00+6юз337359 0.0 101233
08:00+6юз367580 0.0 1012172
11:00+12зюз455068 0.0 1011439
14:00+16зсз573052 0.0 10101144
17:00+14зюз47350 0.0 1009303
20:00+10зюз47440 0.0 1011106
6 марта, сб
сб623:00+9зсз476051 0.0 1013145
02:00+6с7128373 0.0 1014442
05:00+5ссз81181100 0.0 1016641
08:00+2с91285100 0.1 1019720
11:00+4с81058100 0.1 10221194
14:00+4с8943100 0.1 10241466
17:00+4с6840100 0.1 10251746
20:00+1ссв364452 0.1 1027164